Regional Weather Roundup
Issued by NWS

Home | Current Version | Previous Version | Graphics & Text | Print | Product List | Glossary Off
Versions: 1 2 3 4 5 6 7 8 9 10 11 12 13 14 15 16 17 18 19 20 21 22 23 24 25 26 27 28 29 30 31 32 33 34 35 36 37 38 39 40 41 42 43 44 45 46 47 48 49 50

727
ASUS43 KFSD 212010
RWRSD

WEATHER ROUNDUP FOR SOUTH DAKOTA
NATIONAL WEATHER SERVICE SIOUX FALLS SD
200 PM CST WED FEB 21 2018

NOTE: "FAIR" INDICATES FEW OR NO CLOUDS BELOW 12,000 FEET WITH NO
SIGNIFICANT WEATHER AND/OR OBSTRUCTIONS TO VISIBILITY.


SDZ001>005-009-010-012>017-212100-
NORTHWEST AND NORTH CENTRAL SOUTH DAKOTA

CITY           SKY/WX    TMP DP  RH WIND       PRES   REMARKS
BUFFALO          N/A      5  -7  57 S3        30.18F
FAITH            N/A      1  -5  75 S8        30.32F WCI -13
MOBRIDGE       FAIR       9  -1  64 SE8       30.41F WCI  -3
$$

SDZ012>016-024>037-041>051-057-063-072>074-212100-
SOUTHWEST AND SOUTH CENTRAL SOUTH DAKOTA

CITY           SKY/WX    TMP DP  RH WIND       PRES   REMARKS
RAPID CTY ARPT FAIR       3  -4  72 SE10      30.23F WCI -12
PIERRE         FAIR       4  -3  73 E9        30.46F WCI -10
CUSTER         FAIR      18  -1  43 W15G24    30.07F WCI   4
ELLSWORTH AFB  FAIR      10  -1  59 SE12      30.20F WCI  -4
PHILIP         FAIR       4  -3  73 E9        30.36F WCI -10
PINE RIDGE     FAIR      22   9  57 S12       30.26F WCI  10
SPEARFISH        N/A     16   1  53 CALM      30.16F
WINNER         FAIR      21   7  54 S15       30.43F WCI   8
$$

SDZ004>011-016>023-039-040-212100-
NORTHEAST SOUTH DAKOTA

CITY           SKY/WX    TMP DP  RH WIND       PRES   REMARKS
ABERDEEN       FAIR       7  -2  66 S9        30.54F WCI  -7
WATERTOWN      FAIR      15   3  59 SW12      30.50F WCI   2
BROOKINGS      FAIR      15   3  59 SW8       30.54  WCI   4
SISSETON         N/A     17  -1  45 SW5       30.53F WCI  10
$$

SDZ017-020-022-023-036>040-048>070-212100-
SOUTHEAST SOUTH DAKOTA

CITY           SKY/WX    TMP DP  RH WIND       PRES   REMARKS
SIOUX FALLS    PTSUNNY   15   3  59 S13       30.58R WCI   1
HURON          FAIR      15   3  59 S10       30.56F WCI   2
CHAMBERLAIN    FAIR      22   7  53 SE8       30.49F WCI  12
MITCHELL       FAIR      17   2  51 S14       30.58F WCI   3
YANKTON        FAIR      17   3  54 SE9       30.59F WCI   6
$$

ABBREVIATIONS USED IN REMARKS
   TC - TEMPERATURE IN CELSIUS
  WCI - WIND CHILL INDEX
   HX - HEAT INDEX
  VSB - VISIBILITY





USA.gov is the U.S. government's official web portal to all federal, state and local government web resources and services.